STARLINK-36364

Last updated on Fri Mar 27 2026 00:02:06 GMT+0000 (Coordinated Universal Time)

1 67978U 26038T 26085.50002314 .00056541 00000+0 17433-2 0 9992 2 67978 97.2846 96.4316 0001145 98.4522 111.2364 15.33396835 5903
UTC large
Height (km)
Speed (km/s)
/
Latitude / Longitude
Inclination (degrees)
Orbital Period (minutes)
Azimuth
Elevation
Range (km)
Doppler Factor

Next 0 passes for location: London (51.5072 / 0.1276)

Sorry there are no passes over London.